Weather History for Adrian, MI

Change the Weather History Date:

Friday, January 25, 2013

  Actual Average Record
Temperature  
Mean Temperature 17 °F -  
Max Temperature 21 °F 34 °F 68 °F (1950)
Min Temperature 15 °F 16 °F -11 °F (2004)
Degree Days  
Heating Degree Days 48    
Moisture  
Dew Point 14 °F    
Average Humidity 82    
Maximum Humidity 93    
Minimum Humidity 70    
Precipitation  
Precipitation 0.00 in - - ()
Sea Level Pressure  
Sea Level Pressure 30.13 in    
Wind  
Wind Speed 5 mph (South)    
Max Wind Speed 12 mph    
Max Gust Speed -    
Visibility 5 miles    
Events Fog , Snow    
Averages and records for this station are not official NWS values.
T = Trace of Precipitation, MM = Missing Value Source: NWS Daily Summary

Daily Weather History Graph

Daily Weather History Graph

Search for Another Location

Airport:

Trip Planner

Search our weather history database for the weather conditions in past years. The results will help you decide how hot, cold, wet, or windy it might be!

Date:

Astronomy

Jan. 25, 2013 Rise Set
Actual Time 7:54 AM EST 5:42 PM EST
Civil Twilight 7:24 AM EST 6:12 PM EST
Nautical Twilight 6:51 AM EST 6:46 PM EST
Astronomical Twilight 6:18 AM EST 7:19 PM EST
Moon 4:39 PM EST (1/25) 6:34 AM EST (1/25)
Length of Visible Light 10h 48m
Length of Day
9h 47m
Waxing Gibbous, 98% of the Moon is Illuminated
Jan 25
Waxing Gibbous
Jan 26
Full
Feb 3
Last Quarter
Feb 10
New
Feb 17
First Quarter

Hourly Weather History & Observations

Time (EST) Temp. Windchill Dew Point Humidity Pressure Visibility Wind Dir Wind Speed Gust Speed Precip Events Conditions
12:53 AM 15.1 °F 9.4 °F 7.0 °F 70% 30.51 in 10.0 mi SSE 3.5 mph - N/A   Mostly Cloudy
1:53 AM 15.1 °F - 8.1 °F 74% 30.49 in 10.0 mi Calm Calm - N/A   Overcast
2:53 AM 16.0 °F 7.4 °F 8.1 °F 71% 30.47 in 10.0 mi SE 5.8 mph - N/A   Overcast
3:53 AM 16.0 °F 6.3 °F 8.1 °F 71% 30.43 in 10.0 mi SSE 6.9 mph - N/A   Overcast
4:53 AM 16.0 °F 7.4 °F 8.1 °F 71% 30.38 in 10.0 mi SE 5.8 mph - N/A   Overcast
5:53 AM 16.0 °F 5.3 °F 9.0 °F 74% 30.32 in 10.0 mi SE 8.1 mph - N/A   Overcast
6:53 AM 16.0 °F 8.8 °F 8.1 °F 71% 30.30 in 10.0 mi SSE 4.6 mph - N/A   Overcast
7:32 AM 15.8 °F 4.2 °F 8.6 °F 73% 30.23 in 2.5 mi SE 9.2 mph - 0.00 in Snow Light Snow
7:43 AM 15.8 °F 4.2 °F 10.4 °F 79% 30.22 in 3.0 mi ESE 9.2 mph - 0.00 in Snow Light Snow
7:53 AM 16.0 °F 6.3 °F 10.0 °F 77% 30.27 in 8.0 mi SE 6.9 mph - 0.00 in   Overcast
8:53 AM 17.1 °F 8.7 °F 9.0 °F 71% 30.25 in 10.0 mi SSE 5.8 mph - N/A   Overcast
9:53 AM 17.1 °F 5.0 °F 9.0 °F 71% 30.22 in 7.0 mi SSE 10.4 mph - N/A   Overcast
10:32 AM 17.6 °F 5.0 °F 10.4 °F 73% 30.16 in 1.8 mi South 11.5 mph - 0.00 in Snow Light Snow
10:38 AM 17.6 °F 6.4 °F 12.2 °F 79% 30.15 in 1.0 mi South 9.2 mph - 0.00 in Snow Light Snow
10:48 AM 17.6 °F 6.4 °F 12.2 °F 79% 30.16 in 0.5 mi South 9.2 mph - 0.00 in Fog , Snow Snow
10:53 AM 17.1 °F 6.6 °F 12.9 °F 84% 30.21 in 0.5 mi South 8.1 mph - 0.00 in Fog , Snow Snow
2:44 PM 19.4 °F 10.4 °F 14.0 °F 80% 30.02 in 1.8 mi South 6.9 mph - 0.00 in Snow Light Snow
2:53 PM 19.0 °F 9.0 °F 14.0 °F 81% 30.07 in 1.8 mi SSW 8.1 mph - 0.00 in Snow Light Snow
3:06 PM 19.4 °F 9.5 °F 14.0 °F 80% 30.02 in 1.5 mi South 8.1 mph - 0.00 in Snow Light Snow
3:17 PM 19.4 °F 9.5 °F 14.0 °F 80% 30.02 in 1.8 mi SSW 8.1 mph - 0.00 in Snow Light Snow
3:24 PM 19.4 °F 8.6 °F 14.0 °F 80% 30.01 in 2.0 mi SSW 9.2 mph - 0.00 in Snow Light Snow
3:36 PM 19.4 °F 10.4 °F 14.0 °F 80% 30.01 in 4.0 mi SSW 6.9 mph - 0.00 in   Haze
3:53 PM 19.0 °F 9.0 °F 14.0 °F 81% 30.07 in 7.0 mi SSW 8.1 mph - 0.00 in   Overcast
4:03 PM 19.4 °F 9.5 °F 14.0 °F 80% 30.02 in 8.0 mi SSW 8.1 mph - N/A   Overcast
4:25 PM 19.4 °F 9.5 °F 14.0 °F 80% 30.01 in 9.0 mi SSW 8.1 mph - N/A   Overcast
4:53 PM 19.0 °F 9.0 °F 14.0 °F 81% 30.05 in 9.0 mi SSW 8.1 mph - N/A   Overcast
5:53 PM 19.9 °F 11.1 °F 15.1 °F 81% 30.06 in 10.0 mi SSW 6.9 mph - N/A   Overcast
6:04 PM 19.4 °F 11.5 °F 15.8 °F 86% 30.01 in 10.0 mi SSW 5.8 mph - N/A   Overcast
6:15 PM 19.4 °F 12.8 °F 15.8 °F 86% 30.01 in 10.0 mi SW 4.6 mph - N/A   Overcast
6:53 PM 19.9 °F - 16.0 °F 85% 30.07 in 7.0 mi Calm Calm - N/A   Overcast
7:01 PM 19.4 °F - 15.8 °F 86% 30.02 in 6.0 mi Calm Calm - N/A   Overcast
7:27 PM 19.4 °F - 15.8 °F 86% 30.02 in 2.5 mi Calm Calm - 0.00 in Snow Light Snow
7:48 PM 19.4 °F - 17.6 °F 93% 30.02 in 3.0 mi Calm Calm - 0.00 in Snow Light Snow
7:53 PM 19.9 °F - 17.1 °F 89% 30.07 in 3.0 mi Calm Calm - 0.00 in Snow Light Snow
8:03 PM 19.4 °F - 17.6 °F 93% 30.02 in 2.5 mi Calm Calm - 0.00 in Snow Light Snow
8:11 PM 19.4 °F - 17.6 °F 93% 30.02 in 1.8 mi Calm Calm - 0.00 in Snow Light Snow
8:22 PM 19.4 °F - 17.6 °F 93% 30.02 in 1.5 mi Calm Calm - 0.00 in Snow Light Snow
8:41 PM 19.4 °F 14.3 °F 17.6 °F 93% 30.03 in 1.8 mi SSW 3.5 mph - 0.00 in Snow Light Snow
8:50 PM 19.4 °F 14.3 °F 17.6 °F 93% 30.03 in 2.0 mi SW 3.5 mph - 0.00 in Snow Light Snow
8:53 PM 19.9 °F 13.4 °F 17.1 °F 89% 30.07 in 2.0 mi SW 4.6 mph - 0.00 in Snow Light Snow
9:07 PM 19.4 °F 11.5 °F 17.6 °F 93% 30.03 in 2.0 mi SW 5.8 mph - 0.00 in Snow Light Snow
9:53 PM 19.9 °F 12.1 °F 18.0 °F 92% 30.08 in 2.5 mi SW 5.8 mph - 0.00 in Snow Light Snow
10:44 PM 19.4 °F 11.5 °F 17.6 °F 93% 30.02 in 3.0 mi WSW 5.8 mph - 0.00 in Snow Light Snow
10:53 PM 19.9 °F 11.1 °F 18.0 °F 92% 30.07 in 4.0 mi SW 6.9 mph - 0.00 in Snow Light Snow
11:53 PM 21.0 °F 16.2 °F 18.0 °F 88% 30.09 in 3.0 mi WSW 3.5 mph - 0.00 in Snow Light Snow